Cape Girardeau, MO

10:33 PM CST on December 13, 2019 (GMT -0600)
Cape Girardeau Regional

Weather History for KCGI - November, 2019

Change the Weather History Date:

Sunday, November 10, 2019

  Actual Average Record
Temperature  
Mean Temperature 52 °F 49 °F  
Max Temperature 65 °F 60 °F 76 °F (2010)
Min Temperature 38 °F 38 °F 20 °F (1991)
Degree Days  
Heating Degree Days 13 16  
Month to date heating degree days 218 142  
Since 1 July heating degree days 479 445  
Cooling Degree Days 0 0  
Month to date cooling degree days 0 0  
Year to date cooling degree days 1775 1451  
Moisture  
Dew Point 42 °F    
Average Humidity 71    
Maximum Humidity 85    
Minimum Humidity 56    
Precipitation  
Precipitation 0.00 in 0.14 in 0.89 in (1966)
Month to date precipitation 1.84 1.34  
Year to date precipitation 57.35 39.46  
Sea Level Pressure  
Sea Level Pressure 30.03 in    
Wind  
Wind Speed 8 mph (SSW)    
Max Wind Speed 17 mph    
Max Gust Speed 22 mph    
Visibility 10 miles    
Events      
T = Trace of Precipitation, MM = Missing Value Source: NWS Daily Summary

Daily Weather History Graph

Daily Weather History Graph

Search for Another Location

Airport or City:

Astronomy

Nov. 10, 2019 Rise Set
Actual Time 6:31 AM CST 4:52 PM CST
Civil Twilight 6:04 AM CST 5:19 PM CST
Nautical Twilight 5:33 AM CST 5:50 PM CST
Astronomical Twilight 5:02 AM CST 6:21 PM CST
Moon 4:15 PM CST (11/10) 4:28 AM CST (11/10)
Length of Visible Light 11h 15m
Length of Day
10h 20m
Waxing Gibbous, 97% of the Moon is Illuminated
Nov 10
Waxing Gibbous
Nov 12
Full
Nov 19
Last Quarter
Nov 26
New
Dec 4
First Quarter

Hourly Weather History & Observations

Time (CST) Temp. Windchill Dew Point Humidity Pressure Visibility Wind Dir Wind Speed Gust Speed Precip Events Conditions
12:53 AM 42.1 °F 37.7 °F 36.0 °F 79% 30.07 in 10.0 mi SSW 6.9 mph - N/A   Clear
1:53 AM 41.0 °F 39.0 °F 35.1 °F 79% 30.07 in 10.0 mi South 3.5 mph - N/A   Clear
2:53 AM 39.0 °F 35.7 °F 34.0 °F 82% 30.07 in 10.0 mi SSE 4.6 mph - N/A   Clear
3:53 AM 39.9 °F 36.7 °F 34.0 °F 79% 30.06 in 10.0 mi South 4.6 mph - N/A   Clear
4:53 AM 39.9 °F 37.8 °F 34.0 °F 79% 30.07 in 10.0 mi SW 3.5 mph - N/A   Clear
5:53 AM 39.0 °F 34.8 °F 34.0 °F 82% 30.07 in 10.0 mi South 5.8 mph - N/A   Clear
6:53 AM 37.9 °F 34.4 °F 34.0 °F 86% 30.07 in 10.0 mi South 4.6 mph - N/A   Clear
7:53 AM 43.0 °F 39.5 °F 37.0 °F 80% 30.08 in 10.0 mi SSW 5.8 mph - N/A   Clear
8:53 AM 48.0 °F - 39.9 °F 74% 30.08 in 10.0 mi South 8.1 mph - N/A   Clear
10:53 AM 57.0 °F - 44.1 °F 62% 30.04 in 10.0 mi SSW 6.9 mph - N/A   Clear
11:53 AM 59.0 °F - 46.0 °F 62% 30.02 in 10.0 mi SSW 12.7 mph - N/A   Clear
1:53 PM 63.0 °F - 48.0 °F 58% 29.99 in 10.0 mi SSW 11.5 mph - N/A   Clear
2:53 PM 64.9 °F - 48.9 °F 56% 29.98 in 10.0 mi South 12.7 mph - N/A   Clear
3:53 PM 62.1 °F - 48.0 °F 60% 29.97 in 10.0 mi South 11.5 mph - N/A   Clear
4:53 PM 59.0 °F - 48.0 °F 67% 29.98 in 10.0 mi South 6.9 mph - N/A   Clear
5:53 PM 57.0 °F - 48.0 °F 72% 29.99 in 10.0 mi South 6.9 mph - N/A   Clear
6:53 PM 55.9 °F - 48.0 °F 75% 30.00 in 10.0 mi South 3.5 mph - N/A   Clear
7:53 PM 55.9 °F - 48.0 °F 75% 29.99 in 10.0 mi SSW 10.4 mph - N/A   Clear
8:53 PM 55.9 °F - 46.9 °F 72% 29.99 in 10.0 mi SSW 8.1 mph - N/A   Clear
9:53 PM 55.9 °F - 46.0 °F 69% 29.99 in 10.0 mi SSW 8.1 mph 18.4 mph N/A   Clear
10:53 PM 54.0 °F - 45.0 °F 72% 29.99 in 10.0 mi SSW 11.5 mph 17.3 mph N/A   Clear
11:53 PM 53.1 °F - 44.1 °F 71% 30.00 in 10.0 mi SSW 5.8 mph - N/A   Clear